Torna al catalogo

DELTA 1 DEB

AttivoPO
NORAD 21371·DEBRIS·🇺🇸 United States

Lanciato Jun 12, 1975 da Vandenberg Space Force Base

Loading…

Prossimi Passaggi (prossime 24 ore)

TLE

AggiornatoSource: Space-Track

Epoca: Sep 14, 2026, 02:26 UTC

1 21371U 75052CR  26257.10198405  .00000011  00000-0  13175-3 0  9995
2 21371  99.7661 319.3480 0151561 264.9405 122.6358 13.14313129693666

Traccia DELTA 1 DEB in tempo reale con AllMySat

Download on the App Store